Regional Weather Roundup
Issued by NWS Memphis, TN

Home | Current Version | Previous Version | Text Only | Print | Product List | Glossary On
Versions: 1 2 3 4 5 6 7 8 9 10 11 12 13 14 15 16 17 18 19 20 21 22 23 24 25 26 27 28 29 30 31 32 33 34 35 36 37 38 39 40 41 42 43 44 45 46 47 48 49 50
000
ASUS44 KMEG 030010
RWRMEG
MEMPHIS CWA HOURLY WEATHER ROUNDUP
NATIONAL WEATHER SERVICE MEMPHIS TN
700 PM CDT MON MAY 02 2016

...WEST TENNESSEE...

CITY           SKY/WX    TMP DP  RH WIND       PRES   REMARKS
MEMPHIS INTL   MOCLDY    65  56  72 N8        29.95R
6HR MIN TEMP:  64; 6HR MAX TEMP:  69; 6HR PCP: TRACE;

NWS MEMPHIS      N/A     65 N/A N/A MISG        N/A
JACKSON        CLOUDY    63  57  81 CALM      29.94S
6HR MIN TEMP:  57; 6HR MAX TEMP:  63;

LEXINGTON      MOCLDY    59  57  94 E8        29.91F
DYERSBURG      PTCLDY    64  52  63 N8          N/A
6HR MIN TEMP:  63; 6HR MAX TEMP:  66;

UNION CITY     CLEAR     64  54  68 N8        29.93S


...EASTERN ARKANSAS...

CITY           SKY/WX    TMP DP  RH WIND       PRES   REMARKS
JONESBORO      PTCLDY    66  51  58 NW6       29.95S
6HR MIN TEMP:  65; 6HR MAX TEMP:  69;

WEST MEMPHIS   PTCLDY    65  57  75 VRB6      29.94S
6HR MIN TEMP:  64; 6HR MAX TEMP:  68; 6HR PCP: TRACE;

BATESVILLE     CLOUDY    61  48  63 W6        30.00R
6HR MIN TEMP:  61; 6HR MAX TEMP:  66;

NEWPORT        CLOUDY    64  52  65 NW13      29.99R
6HR MIN TEMP:  64; 6HR MAX TEMP:  69;

WALNUT RIDGE   CLEAR     63  48  59 NW12      29.97R
6HR MIN TEMP:  63; 6HR MAX TEMP:  70;

BLYTHEVILLE    PTCLDY    64  55  72 NW8       29.95S
6HR MIN TEMP:  64; 6HR MAX TEMP:  69;

SEARCY         CLOUDY    64  53  67 NW9       30.01R
6HR MIN TEMP:  64; 6HR MAX TEMP:  70;

STUTTGART      PTCLDY    66  54  63 NW10      29.98S
6HR MIN TEMP:  63; 6HR MAX TEMP:  66; 6HR PCP:  0.02;

PINE BLUFF     PTCLDY    65  55  70 W8        29.98S
6HR MIN TEMP:  62; 6HR MAX TEMP:  67; 6HR PCP:  0.02;

MONTICELLO     CLOUDY    65  60  84 NW3       29.97S
6HR MIN TEMP:  61; 6HR MAX TEMP:  65; 6HR PCP:  0.06;



...NORTH MISSISSIPPI...

CITY           SKY/WX    TMP DP  RH WIND       PRES   REMARKS
TUPELO         CLOUDY    65  60  84 W7        29.94R
6HR MIN TEMP:  64; 6HR MAX TEMP:  68;

OXFORD         CLOUDY    59  57  94 NW5       29.97R
BATESVILLE     CLOUDY    62  60  92 CALM      29.96R
6HR MIN TEMP:  61; 6HR MAX TEMP:  63; 6HR PCP:  0.26;

OLIVE BRANCH   CLOUDY    63  61  94 NW3       29.95S
TUNICA         CLOUDY    63  55  77 NW10      29.97R
CORINTH        CLOUDY    63  59  88 NW8G16    29.94R
GREENWOOD      CLOUDY    64  59  83 VRB3      29.97R
6HR MIN TEMP:  64; 6HR MAX TEMP:  69; 6HR PCP: TRACE;

STARKVILLE     FAIR      68  64  88 CALM      29.91R
GOLDEN TRIANGL PTCLDY    72  64  78 NW5       29.91S


...SOUTHEAST MISSOURI...

CITY           SKY/WX    TMP DP  RH WIND       PRES   REMARKS
KENNETT        FAIR      68  52  56 NW7       29.94S
WEST PLAINS    CLOUDY    57  45  64 N10       30.02S
6HR MIN TEMP:  57; 6HR MAX TEMP:  62;

POPLAR BLUFF   CLOUDY    63  50  62 N13       29.96R
6HR MIN TEMP:  63; 6HR MAX TEMP:  69;

CAPE GIRARDEAU PTCLDY    60  49  66 N13       29.97S
6HR MIN TEMP:  60; 6HR MAX TEMP:  65;



...NORTHWEST ALABAMA...

CITY           SKY/WX    TMP DP  RH WIND       PRES   REMARKS
MUSCLE SHOALS  CLOUDY    66  61  84 NW7       29.92F
6HR MIN TEMP:  66; 6HR MAX TEMP:  72; 6HR PCP:  0.02;



...MIDDLE TENNESSEE...

CITY           SKY/WX    TMP DP  RH WIND       PRES   REMARKS
NASHVILLE      CLOUDY    61  57  87 NW8       29.94R
6HR MIN TEMP:  58; 6HR MAX TEMP:  68; 6HR PCP:  0.14;

CLARKSVILLE    MOCLDY    60  56  86 SW5       29.94R
6HR MIN TEMP:  57; 6HR MAX TEMP:  62;

COLUMBIA       CLOUDY   N/A N/A N/A N6        29.91S


...WESTERN KENTUCKY...

CITY           SKY/WX    TMP DP  RH WIND       PRES   REMARKS
PADUCAH        MOCLDY    61  49  64 N10G20    29.95S
6HR MIN TEMP:  61; 6HR MAX TEMP:  69;

FORT CAMPBELL  CLOUDY    62  57  85 W3        29.93S
6HR MIN TEMP:  57; 6HR MAX TEMP:  62;



...CENTRAL ARKANSAS...

CITY           SKY/WX    TMP DP  RH WIND       PRES   REMARKS
LITTLE ROCK    MOSUNNY   66  52  60 NW10      30.00R
6HR MIN TEMP:  64; 6HR MAX TEMP:  71; 6HR PCP: TRACE;



SKY/WX REPORTED AS FAIR MEANS FEW OR NO CLOUDS BELOW
12 THOUSAND FEET.





USA.gov is the U.S. government's official web portal to all federal, state and local government web resources and services.